Location: Broek
(53.2737°N, 5.9967°E)
Time: 21:39:02
(UTC+00:00)

Cosmos 2344 - Pass Details

Date: 10 October 2024
Orbit: 1205 x 3037 km, 63.3° (Epoch: 09 November)

Event Time Altitude Azimuth Distance (km) Brightness Sun altitude
Rises 18:36:43 0° 313° (NW) 4,259 7.3 -16.6°
Reaches altitude 10° 18:39:16 10° 310° (NW) 3,386 6.7 -17.0°
Maximum altitude 18:47:15 63° 232° (SW) 1,758 4.4 -18.2°
Drops below altitude 10° 18:58:06 10° 156° (SSE) 4,524 6.1 -19.8°
Enters shadow 19:01:02 - 154° (SSE) 5,457 6.5 -20.2°
